DNO773 LGKJ-LGRP

Flight info

Callsign DNO773
Flight time N/A
Altitude 6000
Route EXELA M601 LAKAD
Aircraft BE36/L-BDFGLORY/S

Departure

Time 2026-04-21 16:07
Airport Kastelorizo Airport (LGKJ)

Arrival

Time N/A
Airport Rhodes International Airport "Diagoras" (LGRP)
Time Latitude Longitude Altitude Speed Heading
2026-04-21 16:05 36.14156 29.57740 468 ft 0 kts 48°
2026-04-21 16:06 36.14176 29.57701 467 ft 19 kts 261°
2026-04-21 16:06 36.14128 29.57687 466 ft 15 kts 137°
2026-04-21 16:06 36.14078 29.57748 463 ft 5 kts 167°
2026-04-21 16:06 36.14083 29.57725 464 ft 16 kts 321°
2026-04-21 16:07 36.14389 29.57372 593 ft 91 kts 309°
2026-04-21 16:07 36.14547 29.56488 946 ft 129 kts 262°
2026-04-21 16:07 36.14608 29.55295 1294 ft 146 kts 282°
2026-04-21 16:07 36.14838 29.54043 1627 ft 151 kts 282°
2026-04-21 16:08 36.15298 29.51490 2243 ft 155 kts 283°
2026-04-21 16:08 36.15537 29.50182 2553 ft 157 kts 283°
2026-04-21 16:08 36.15780 29.48854 2856 ft 159 kts 283°
2026-04-21 16:09 36.16023 29.47527 3157 ft 157 kts 283°
2026-04-21 16:09 36.16263 29.46212 3453 ft 157 kts 283°
2026-04-21 16:09 36.16504 29.44888 3749 ft 159 kts 283°
2026-04-21 16:09 36.16748 29.43553 4046 ft 159 kts 283°
2026-04-21 16:10 36.16993 29.42211 4349 ft 160 kts 284°
2026-04-21 16:10 36.17238 29.40866 4653 ft 161 kts 283°
2026-04-21 16:10 36.17485 29.39512 4952 ft 162 kts 284°
2026-04-21 16:10 36.17733 29.38147 5248 ft 163 kts 284°
2026-04-21 16:11 36.17983 29.36774 5549 ft 164 kts 284°
2026-04-21 16:11 36.18233 29.35402 5855 ft 164 kts 284°
2026-04-21 16:11 36.18485 29.34006 5931 ft 174 kts 284°
2026-04-21 16:11 36.18753 29.32543 5933 ft 169 kts 284°
2026-04-21 16:12 36.19001 29.31176 5926 ft 159 kts 284°
2026-04-21 16:12 36.19241 29.29848 5924 ft 157 kts 284°
2026-04-21 16:12 36.19478 29.28531 5927 ft 156 kts 285°
2026-04-21 16:12 36.19715 29.27224 5924 ft 155 kts 284°
2026-04-21 16:13 36.19951 29.25921 5923 ft 155 kts 284°
2026-04-21 16:13 36.20186 29.24617 5921 ft 155 kts 284°
2026-04-21 16:13 36.20425 29.23298 5924 ft 158 kts 284°
2026-04-21 16:13 36.20666 29.21968 5925 ft 159 kts 284°
2026-04-21 16:14 36.20906 29.20632 5929 ft 159 kts 284°
2026-04-21 16:14 36.21148 29.19290 5929 ft 160 kts 284°
2026-04-21 16:14 36.21392 29.17929 5932 ft 169 kts 284°
2026-04-21 16:14 36.21655 29.16464 5943 ft 177 kts 284°
2026-04-21 16:15 36.21922 29.14982 5945 ft 179 kts 284°
2026-04-21 16:15 36.22194 29.13475 5944 ft 180 kts 284°
2026-04-21 16:15 36.22463 29.11967 5948 ft 179 kts 284°
2026-04-21 16:15 36.22732 29.10466 5946 ft 178 kts 284°
2026-04-21 16:16 36.23002 29.08964 5942 ft 178 kts 284°
2026-04-21 16:16 36.23270 29.07466 5941 ft 178 kts 284°
2026-04-21 16:16 36.23540 29.05966 5942 ft 178 kts 284°
2026-04-21 16:16 36.23806 29.04470 5942 ft 177 kts 284°
2026-04-21 16:17 36.24071 29.02995 5942 ft 174 kts 284°
2026-04-21 16:17 36.24332 29.01532 5937 ft 173 kts 284°
2026-04-21 16:17 36.24594 29.00070 5937 ft 174 kts 284°
2026-04-21 16:17 36.24854 28.98610 5935 ft 174 kts 284°
2026-04-21 16:18 36.25112 28.97163 5936 ft 174 kts 284°
2026-04-21 16:18 36.25372 28.95701 5933 ft 174 kts 284°
2026-04-21 16:18 36.25633 28.94240 5933 ft 174 kts 283°
2026-04-21 16:18 36.25892 28.92781 5933 ft 174 kts 284°
2026-04-21 16:19 36.26151 28.91322 5935 ft 174 kts 283°
2026-04-21 16:19 36.26412 28.89857 5931 ft 174 kts 283°
2026-04-21 16:19 36.26673 28.88381 5931 ft 175 kts 283°
2026-04-21 16:19 36.26935 28.86904 5931 ft 175 kts 283°
2026-04-21 16:20 36.27196 28.85431 5931 ft 175 kts 283°
2026-04-21 16:20 36.27457 28.83954 5930 ft 175 kts 283°